Location: Kellogg
(38.0159°N, 90.0546°W)
Time: 06:59:42
(UTC+00:00)

S-56A Canister/Altair - Pass Details

Date: 13 September 2024
Orbit: 636 x 2487 km, 38.9° (Epoch: 09 October)

Event Time Altitude Azimuth Distance (km) Brightness Sun altitude
Rises 22:22:28 0° 185° (S) 2,992 10.8 20.3°
Reaches altitude 10° 22:26:36 10° 148° (SSE) 2,275 9.8 19.5°
Maximum altitude 22:27:59 11° 132° (SE) 2,292 9.7 19.3°
Drops below altitude 10° 22:29:28 10° 116° (ESE) 2,462 9.7 19.0°
Sets 22:34:42 0° 83° (E) 3,828 10.5 18.0°
